[[{"header":{"parameterUnit":"m.s-1","parameterCategory":1,"la1":30.2991,"la2":30.254,"lo1":-89.0895,"lo2":-89.0444,"dy":0.0017,"dx":0.0017,"nx":28,"ny":28,"refTime":"2024-12-19T03:00:00:Z","depth":0,"parameterNumber":2,"parameterNumberName":"U-component_of_WINDS"},"data":[0,0,0,0,0,0,0,0,0,0,0,0,0,0,0,0,0,0,0,0,0,0,0,0,0,0,0,0,0,0,0,0,0,0,0,0,0,0,0,0,0,0,0,0,0,0,0,0,0,0,0,0,0,0,0,0,0,0,2.038,2.038,0,2.034,2.034,2.0339,2.0322,2.0322,2.0322,2.0322,2.0282,2.0281,2.028,0,0,0,0,0,0,0,0,0,0,0,0,0,2.0444,2.0443,2.038,2.038,2.0379,2.034,2.034,2.0339,2.0322,2.0322,2.0322,2.0322,2.0283,2.0281,2.028,0,0,0,0,0,0,0,0,0,0,0,0,0,2.0411,2.0442,2.038,2.0366,2.0364,2.034,2.034,2.0339,2.0322,2.0322,2.0322,2.0322,2.0283,2.0282,2.028,2.0268,0,0,2.0275,2.0274,0,0,0,0,0,0,0,0,2.0413,2.0409,2.0369,2.0367,2.0365,2.0336,2.0347,2.0315,2.0322,2.0338,2.0322,2.0322,2.03,2.0297,2.0289,2.0266,2.0264,2.0275,2.0274,2.0273,2.0272,0,0,0,0,0,0,0,2.0415,2.0411,2.0364,2.0368,2.0366,2.0362,2.0358,2.0341,2.0319,2.0337,2.0335,2.0331,2.0299,2.0291,2.0288,2.0263,2.0275,2.0273,2.0272,2.0271,2.0228,2.0228,0,0,0,0,0,0,2.042,2.0413,2.0366,2.0363,2.039,2.0361,2.0356,2.0345,2.0319,2.0315,2.0331,2.033,2.0294,2.029,2.0287,2.0271,2.0273,2.0271,2.027,2.0229,2.0228,2.0228,0,0,0,0,0,0,2.0421,2.0416,2.0367,2.0387,2.0381,2.036,2.0348,2.0344,2.0336,2.0315,2.0311,2.0326,2.0294,2.0289,2.0273,2.0269,2.0271,2.0269,2.0229,2.0228,2.0228,2.0239,0,0,0,0,0,0,2.0423,2.0416,2.0411,2.0387,2.038,2.0353,2.0348,2.0344,2.0333,2.0332,2.031,2.0306,2.0294,2.0275,2.0271,2.0267,2.0268,2.0229,2.0229,2.0228,2.0239,2.0239,2.0239,0,0,0,0,0,2.0425,2.0416,2.0411,2.0405,2.0373,2.0353,2.0349,2.0334,2.0333,2.0328,2.0314,2.0307,2.0271,2.0274,2.0269,2.0264,2.0229,2.0229,2.0228,2.0239,2.0239,2.0239,0,0,0,0,0,0,2.0439,2.0412,2.0406,2.0388,2.0373,2.035,2.0342,2.0335,2.032,2.0319,2.0303,2.0298,2.0283,2.0272,2.0276,2.0251,2.0249,2.0248,2.0259,2.0259,2.0259,2.0262,2.0266,0,0,0,0,0,2.044,2.0426,2.0403,2.039,2.0382,2.0364,2.0355,2.0345,2.0328,2.0322,2.0307,2.0292,2.0277,2.0268,2.0253,2.0238,2.0233,2.0232,2.0233,2.0233,2.0232,2.0224,2.0223,2.0227,2.0227,2.0227,0,0,2.0442,2.0425,2.0417,2.0392,2.0379,2.0365,2.0358,2.0344,2.0333,2.032,2.0303,2.0292,2.0274,2.0258,2.025,2.0248,2.023,2.0233,2.0233,2.0232,2.0223,2.0223,2.0223,2.0227,2.0227,2.0227,0,0,2.0437,2.0423,2.0411,2.0398,2.0378,2.0367,2.0364,2.0342,2.0334,2.0317,2.0306,2.0295,2.0269,2.0257,2.0247,2.024,2.0233,2.0236,2.0238,2.023,2.0229,2.0229,2.0227,2.0226,2.0235,2.0235,2.0235,0,2.0442,2.042,2.0405,2.0391,2.0381,2.0368,2.0356,2.0344,2.0321,2.0314,2.0313,2.0282,2.0269,2.025,2.0248,2.0241,2.0238,2.0238,2.0231,2.023,2.023,2.0227,2.0226,2.0236,2.0236,2.0236,2.0236,0,2.0427,2.0412,2.0404,2.0382,2.0371,2.0358,2.0342,2.0332,2.0324,2.0313,2.0296,2.028,2.0262,2.0258,2.0249,2.0238,2.0238,2.0234,2.0231,2.023,2.0227,2.0226,2.0236,2.0236,2.0236,2.0236,0,0,2.0428,2.0399,2.0397,2.0387,2.0365,2.0353,2.0341,2.0323,2.0315,2.03,2.0289,2.0269,2.0265,2.0254,2.0245,2.0238,2.0234,2.0235,2.0235,2.0236,2.0221,2.0224,2.0223,2.023,2.023,2.0229,2.0223,0,2.0421,2.0396,2.0383,2.0365,2.0351,2.034,2.0329,2.0315,2.0304,2.0292,2.028,2.0266,2.0262,2.0256,2.0249,2.0236,2.0231,2.0237,2.022,2.0219,2.0224,2.0222,2.0224,2.0218,2.0222,2.0221,2.0221,0,2.0408,2.0393,2.0373,2.0354,2.0348,2.0338,2.0321,2.0309,2.0294,2.0287,2.0275,2.0266,2.0253,2.0252,2.0234,2.0238,2.0231,2.0224,2.0223,2.022,2.022,2.0219,2.0216,2.0215,2.0219,2.022,2.022,0,2.0411,2.0386,2.0371,2.0363,2.034,2.0334,2.0324,2.0308,2.0299,2.0285,2.0279,2.0264,2.0255,2.0244,2.0231,2.0232,2.0214,2.0212,2.0208,2.0209,2.0204,2.0205,2.02,2.02,2.0201,2.0201,2.0201,0,2.0404,2.0392,2.0372,2.0363,2.035,2.0336,2.0323,2.0313,2.0299,2.0288,2.0278,2.0268,2.0252,2.0241,2.0231,2.0218,2.0214,2.0208,2.0206,2.0209,2.0209,2.0203,2.0203,2.02,2.02,2.02,2.02,0,2.0404,2.0391,2.0373,2.0354,2.0349,2.034,2.0323,2.0314,2.0304,2.029,2.0286,2.027,2.0255,2.0242,2.0223,2.0217,2.0203,2.02,2.0208,2.0207,2.0203,2.0204,2.0194,2.0193,2.0195,2.0195,2.0195,0,2.04,2.039,2.037,2.0362,2.0353,2.0339,2.033,2.0317,2.0308,2.029,2.0283,2.0268,2.0255,2.0233,2.022,2.0206,2.0202,2.02,2.02,2.0203,2.0202,2.0202,2.0201,2.02,2.02,2.02,2.02,0,2.0394,2.0388,2.0374,2.0359,2.0348,2.0336,2.0323,2.0317,2.0301,2.0292,2.0277,2.0267,2.0248,2.0234,2.0218,2.0209,2.0202,2.02,2.0199,2.0201,2.0206,2.0203,2.0209,2.02,2.02,2.02,2.02,2.02,2.0391,2.0383,2.0367,2.0353,2.0342,2.0331,2.0321,2.031,2.0298,2.0281,2.0275,2.026,2.0246,2.0224,2.0215,2.0204,2.0202,2.02,2.0199,2.0198,2.0199,2.0209,2.0201,2.0201,2.0201,2.0201,2.0201,0,2.0384,2.0374,2.0361,2.0344,2.0333,2.0328,2.0314,2.0305,2.0292,2.028,2.0268,2.0252,2.0238,2.0224,2.021,2.0204,2.02,2.02,2.02,2.0198,2.0201,2.0204,2.0203,2.0203,2.0203,2.0203,2.0203,2.0203,2.0379,2.0364,2.0357,2.0338,2.0328,2.0313,2.0306,2.0296,2.0285,2.0268,2.0256,2.0248,2.0235,2.022,2.0207,2.0204,2.0199,2.02,2.0195,2.0198,2.0198,2.0198,2.02,2.0199,2.0199,2.0193,2.0193,2.0193]},{"header":{"parameterUnit":"m.s-1","parameterCategory":1,"la1":30.2991,"la2":30.254,"lo1":-89.0895,"lo2":-89.0444,"dy":0.0017,"dx":0.0017,"nx":28,"ny":28,"refTime":"2024-12-19T03:00:00:Z","depth":0,"parameterNumber":3,"parameterNumberName":"V-component_of_WINDS"},"data":[0,0,0,0,0,0,0,0,0,0,0,0,0,0,0,0,0,0,0,0,0,0,0,0,0,0,0,0,0,0,0,0,0,0,0,0,0,0,0,0,0,0,0,0,0,0,0,0,0,0,0,0,0,0,0,0,0,0,1.7421,1.7422,0,1.7488,1.7489,1.749,1.7509,1.7509,1.7508,1.7508,1.7573,1.7576,1.7578,0,0,0,0,0,0,0,0,0,0,0,0,0,1.7301,1.7303,1.7421,1.7422,1.7423,1.7488,1.7489,1.749,1.7509,1.7509,1.7508,1.7508,1.7573,1.7575,1.7578,0,0,0,0,0,0,0,0,0,0,0,0,0,1.7359,1.7304,1.7421,1.744,1.7442,1.7488,1.7489,1.749,1.7509,1.7509,1.7508,1.7508,1.7572,1.7575,1.7578,1.7608,0,0,1.7588,1.7589,0,0,0,0,0,0,0,0,1.7356,1.7364,1.7436,1.7439,1.7442,1.749,1.7471,1.753,1.7509,1.7484,1.7508,1.7507,1.7546,1.7551,1.7565,1.7612,1.7614,1.7588,1.759,1.7591,1.7592,0,0,0,0,0,0,0,1.7352,1.7361,1.7448,1.7437,1.744,1.7443,1.7451,1.7482,1.7517,1.7486,1.7487,1.7495,1.7547,1.7562,1.7567,1.7615,1.7588,1.7591,1.7593,1.7594,1.7685,1.7685,0,0,0,0,0,0,1.7345,1.7357,1.7445,1.745,1.7397,1.7445,1.7454,1.7475,1.7517,1.7523,1.7496,1.7496,1.7557,1.7563,1.7569,1.7605,1.7591,1.7594,1.7596,1.7684,1.7685,1.7686,0,0,0,0,0,0,1.7343,1.7353,1.7443,1.7404,1.7415,1.7448,1.7471,1.7476,1.7491,1.7524,1.753,1.7505,1.7557,1.7565,1.7598,1.7607,1.7596,1.7598,1.7684,1.7685,1.7685,1.7678,0,0,0,0,0,0,1.7339,1.7352,1.7366,1.7404,1.7417,1.7473,1.7472,1.7478,1.7497,1.7498,1.7534,1.754,1.7557,1.7593,1.7601,1.7611,1.7601,1.7683,1.7684,1.7685,1.7677,1.7678,1.7679,0,0,0,0,0,1.7335,1.7361,1.7367,1.7377,1.7436,1.7473,1.7481,1.7501,1.7498,1.7511,1.7531,1.7539,1.7605,1.7596,1.7605,1.7617,1.7682,1.7684,1.7685,1.7677,1.7678,1.7679,0,0,0,0,0,0,1.7324,1.7367,1.7373,1.7413,1.7439,1.7476,1.7494,1.7502,1.7529,1.7528,1.7551,1.7558,1.7589,1.7606,1.7596,1.7646,1.7643,1.7646,1.7634,1.7635,1.7636,1.7631,1.7603,0,0,0,0,0,1.7326,1.7354,1.739,1.7421,1.7434,1.7461,1.7478,1.7491,1.7519,1.7529,1.7552,1.7577,1.7603,1.762,1.7646,1.7679,1.7685,1.7691,1.7692,1.7692,1.7695,1.7709,1.7711,1.769,1.769,1.769,0,0,1.7331,1.7358,1.7375,1.742,1.7441,1.7467,1.7471,1.7499,1.7518,1.7534,1.7566,1.7583,1.7612,1.7644,1.7659,1.7659,1.7701,1.7694,1.7694,1.7696,1.7711,1.7713,1.7715,1.769,1.769,1.769,0,0,1.7353,1.7378,1.7405,1.7426,1.7458,1.7475,1.7481,1.7516,1.7528,1.7561,1.7572,1.7593,1.7639,1.7658,1.7673,1.7696,1.7703,1.7704,1.7709,1.7723,1.7724,1.7726,1.7732,1.7735,1.7706,1.7706,1.7706,0,1.7355,1.7397,1.7418,1.7445,1.7463,1.7477,1.7503,1.7521,1.756,1.7571,1.757,1.7624,1.7645,1.768,1.7685,1.7698,1.7704,1.7701,1.7723,1.7725,1.7726,1.7733,1.7735,1.7706,1.7706,1.7706,1.7706,0,1.7396,1.7424,1.7442,1.7479,1.7498,1.7525,1.7547,1.7563,1.7573,1.7589,1.762,1.7644,1.7674,1.7683,1.7693,1.7718,1.7716,1.7719,1.7717,1.7728,1.7734,1.7737,1.7706,1.7706,1.7706,1.7706,0,0,1.7417,1.7461,1.7467,1.7482,1.7516,1.7538,1.7562,1.7591,1.7604,1.7629,1.7649,1.7684,1.7685,1.7703,1.7714,1.7727,1.774,1.7727,1.7728,1.7728,1.7766,1.7764,1.7766,1.7745,1.7745,1.7746,1.7763,0,1.7442,1.7489,1.7505,1.7543,1.7567,1.7578,1.7599,1.7621,1.7635,1.7656,1.7671,1.7696,1.7697,1.7707,1.7719,1.7736,1.7748,1.7735,1.7761,1.7762,1.7754,1.777,1.7769,1.7784,1.7766,1.7766,1.7767,0,1.7479,1.7503,1.7543,1.757,1.7581,1.76,1.7626,1.7646,1.7669,1.7679,1.7696,1.7706,1.7729,1.7724,1.7755,1.7745,1.7756,1.7766,1.7766,1.777,1.7765,1.7773,1.779,1.7792,1.7771,1.777,1.777,0,1.7487,1.753,1.7558,1.7571,1.7604,1.7616,1.7631,1.7653,1.7668,1.769,1.7699,1.7723,1.7735,1.7752,1.7767,1.7763,1.7795,1.7793,1.7801,1.7801,1.7809,1.7808,1.7827,1.7816,1.7816,1.7816,1.7816,0,1.7513,1.7537,1.7562,1.7579,1.7604,1.7621,1.7645,1.7659,1.7679,1.7697,1.7708,1.7724,1.7743,1.7761,1.7772,1.7794,1.78,1.7806,1.7809,1.7806,1.7804,1.7813,1.7812,1.7817,1.7817,1.7816,1.7816,0,1.7527,1.7546,1.7577,1.7605,1.7612,1.7629,1.7651,1.7667,1.768,1.7703,1.7709,1.773,1.7752,1.7767,1.7796,1.7803,1.7826,1.7829,1.7818,1.7819,1.7827,1.7825,1.7852,1.7856,1.7843,1.7843,1.7843,0,1.7543,1.7561,1.759,1.7603,1.7617,1.7638,1.7653,1.7669,1.7683,1.7708,1.772,1.7742,1.7761,1.7794,1.7811,1.7831,1.7834,1.7842,1.7837,1.7832,1.7833,1.7831,1.7832,1.7843,1.7843,1.7843,1.7843,0,1.7568,1.7575,1.7596,1.7619,1.7636,1.7655,1.7674,1.7684,1.7703,1.7718,1.774,1.7754,1.7781,1.7802,1.7823,1.7836,1.7841,1.7844,1.7847,1.7843,1.7836,1.7838,1.7819,1.7843,1.7843,1.7843,1.7843,1.7843,1.7582,1.7597,1.7619,1.7641,1.7656,1.7673,1.7688,1.7702,1.7721,1.7745,1.7753,1.7775,1.7793,1.7822,1.7834,1.785,1.785,1.7855,1.7856,1.7857,1.7856,1.7833,1.7854,1.7854,1.7854,1.7854,1.7854,0,1.7606,1.762,1.764,1.7665,1.7681,1.7685,1.7705,1.7718,1.7738,1.7755,1.7772,1.7796,1.7815,1.7832,1.7851,1.786,1.7863,1.7865,1.7864,1.7866,1.7855,1.785,1.7862,1.7862,1.7862,1.7862,1.7862,1.7862,1.762,1.7645,1.7654,1.7685,1.7698,1.772,1.773,1.7745,1.7758,1.7784,1.78,1.781,1.7826,1.7846,1.7863,1.7867,1.7873,1.7874,1.7878,1.7868,1.7867,1.7866,1.7862,1.7875,1.7875,1.7888,1.7888,1.7888]}]]